STARLINK-1697 (46546 NORAD) Tracking and Keplerian Element Data

This shows tracking and keplerian element data for the satellite.

Feedback or suggestion? Click here.




ElementValue
Catalog46546
NameSTARLINK-1697
Epoch Orbit177
Epoch Day304.91667824
Epoch Year2020
RAAN321.9369
Inclination53.0002
Eccentricity0.0001067
Argument of Perigee63.9322
Mean Anonmoly194.1048
Mean Motion15.62715545
Decay Rate-0.00052233
L11 46546U 20070Q 20304.91667824 -.00052233 00000-0 -56911-3 0 9998
L22 46546 53.0002 321.9369 0001067 63.9322 194.1048 15.62715545 1772

Live tracking and technical data element details for STARLINK-1697 (NORAD 46546). STARLINK-1697 can be tracked NOW for your location showing map with azimuth and elevation plus other details from your city location.

Track the satellite on the map from your city or location and see movement details for azimuth, elevation, latitude, longitude, range, height, and movement on the map or in text.







IsCatalogInMostPopularTable: catalog: 46546, numindb: 3
Update: records affected: 1



GetName: 46546 STARLINK-1697

Hit Count: updated at: Sat, 31 Oct 2020 11:12:47 GMT